Prague, Czech Republic

1:52 PM CET on February 27, 2017 (GMT +0100)
Prague-Ruzyne Airport

Weather History for LKPR - October, 2012

Change the Weather History Date:

Saturday, October 20, 2012

  Actual Average Record
Temperature  
Mean Temperature 45 °F -  
Max Temperature 48 °F 47 °F 63 °F (2014)
Min Temperature 42 °F 34 °F 26 °F (1999)
Degree Days  
Heating Degree Days 20    
Moisture  
Dew Point 47 °F    
Average Humidity 99    
Maximum Humidity 100    
Minimum Humidity 93    
Precipitation  
Precipitation 0.00 in 0.04 in - ()
Sea Level Pressure  
Sea Level Pressure 30.12 in    
Wind  
Wind Speed 3 mph ()    
Max Wind Speed 6 mph    
Max Gust Speed -    
Visibility 0.7 miles    
Events Fog , Rain    
Averages and records for this station are not official NWS values.
T = Trace of Precipitation, MM = Missing Value Source: Averaged Metar Reports

Daily Weather History Graph

Daily Weather History Graph

Search for Another Location

Airport or City:

Trip Planner

Search our weather history database for the weather conditions in past years. The results will help you decide how hot, cold, wet, or windy it might be!

Date:

Astronomy

Oct. 20, 2012 Rise Set
Actual Time 7:33 AM CEST 6:01 PM CEST
Civil Twilight 7:00 AM CEST 6:33 PM CEST
Nautical Twilight 6:22 AM CEST 7:11 PM CEST
Astronomical Twilight 5:45 AM CEST 7:48 PM CEST
Moon 1:13 PM CEST (10/20) 10:09 PM CEST (10/20)
Length of Visible Light 11h 33m
Length of Day
10h 27m
Waxing Crescent, 31% of the Moon is Illuminated
Oct 20
Waxing Crescent
Oct 22
First Quarter
Oct 29
Full
Nov 7
Last Quarter
Nov 13
New

Hourly Weather History & Observations

Time (CEST) Temp. Windchill Dew Point Humidity Pressure Visibility Wind Dir Wind Speed Gust Speed Precip Events Conditions
12:00 AM 48.2 °F - 46.4 °F 93% 30.09 in 0.1 mi Variable 2.3 mph - N/A Fog Fog
12:30 AM 46.4 °F - 46.4 °F 100% 30.09 in 0.2 mi Variable 2.3 mph - N/A Fog Fog
1:00 AM 46.4 °F - 46.4 °F 100% 30.09 in 0.2 mi Variable 1.2 mph - N/A Fog Fog
1:30 AM 46.4 °F - 46.4 °F 100% 30.09 in 0.2 mi Variable 1.2 mph - N/A Fog Fog
2:00 AM 47 °F - 47 °F 99% 30.13 in 0 mi East 2.2 mph - - Fog Heavy Fog
2:00 AM 46.4 °F - 46.4 °F 100% 30.09 in 0.2 mi Calm Calm - N/A Fog Fog
2:17 AM 46.4 °F - 46.4 °F 100% 30.09 in 0.2 mi Variable 1.2 mph - N/A Fog Fog
2:30 AM 46.4 °F - 46.4 °F 100% 30.09 in 0.2 mi Variable 2.3 mph - N/A Fog Fog
3:00 AM 46.4 °F - 46.4 °F 100% 30.09 in 0.2 mi Variable 2.3 mph - N/A Fog Fog
3:30 AM 46.4 °F - 46.4 °F 100% 30.09 in 0.2 mi Variable 1.2 mph - N/A Fog Fog
4:00 AM 44.6 °F - 44.6 °F 100% 30.09 in 0.2 mi SSW 2.3 mph - N/A Fog Fog
4:30 AM 44.6 °F - 44.6 °F 100% 30.09 in 0.2 mi South 2.3 mph - N/A Fog Fog
5:00 AM 44.6 °F 43.1 °F 44.6 °F 100% 30.09 in 0.2 mi South 3.5 mph - N/A Fog Fog
5:30 AM 44.6 °F 42.2 °F 44.6 °F 100% 30.09 in 0.2 mi SW 4.6 mph - N/A Fog Fog
6:00 AM 42.8 °F 41.1 °F 42.8 °F 100% 30.09 in 0.2 mi SSW 3.5 mph - N/A Fog Fog
6:30 AM 42.8 °F 41.1 °F 42.8 °F 100% 30.09 in 0.2 mi SW 3.5 mph - N/A Fog Fog
7:00 AM 42.8 °F 41.1 °F 42.8 °F 100% 30.09 in 0.2 mi SSW 3.5 mph - N/A Fog Light Drizzle
7:20 AM 44.6 °F - 42.8 °F 93% 30.09 in 0.2 mi Variable 2.3 mph - N/A Fog Light Drizzle
7:30 AM 44.6 °F - 42.8 °F 93% 30.09 in 0.2 mi South 2.3 mph - N/A Fog Light Drizzle
8:00 AM 44 °F - 44 °F 100% 30.14 in 0 mi SE 2.2 mph - - Rain Light Drizzle
8:00 AM 44.6 °F - 44.6 °F 100% 30.09 in 0.2 mi Variable 1.2 mph - N/A Fog Light Drizzle
8:30 AM 44.6 °F 43.1 °F 44.6 °F 100% 30.09 in 0.2 mi ESE 3.5 mph - N/A Fog Fog
8:46 AM 44.6 °F - 44.6 °F 100% 30.12 in 0.2 mi Variable 1.2 mph - N/A Fog Fog
9:00 AM 46.4 °F 45.2 °F 44.6 °F 93% 30.12 in 0.2 mi East 3.5 mph - N/A Fog Fog
9:09 AM 46.4 °F - 44.6 °F 93% 30.12 in 0.2 mi Variable 2.3 mph - N/A Fog Fog
9:30 AM 46.4 °F - 46.4 °F 100% 30.12 in 0.3 mi Variable 1.2 mph - N/A Fog Fog
9:42 AM 46.4 °F - 46.4 °F 100% 30.12 in 0.3 mi Variable 1.2 mph - N/A Fog Fog
10:00 AM 46.4 °F - 46.4 °F 100% 30.12 in 0.3 mi Variable 1.2 mph - N/A Fog Fog
10:15 AM 48.2 °F - 48.2 °F 100% 30.15 in 0.4 mi SW 3.5 mph - N/A Fog Fog
10:23 AM 48.2 °F - 48.2 °F 100% 30.12 in 0.5 mi WSW 3.5 mph - N/A Fog Patches of Fog
10:30 AM 48.2 °F - 48.2 °F 100% 30.15 in 0.7 mi WSW 3.5 mph - N/A   Overcast
10:34 AM 48.2 °F - 48.2 °F 100% 30.15 in 1.1 mi WSW 4.6 mph - N/A   Overcast
10:48 AM 48.2 °F - 48.2 °F 100% 30.15 in 1.9 mi WSW 5.8 mph - N/A   Overcast
11:00 AM 48.2 °F - 48.2 °F 100% 30.15 in 1.9 mi WSW 5.8 mph - N/A   Overcast
11:30 AM 48.2 °F - 48.2 °F 100% 30.15 in 1.9 mi WSW 4.6 mph - N/A   Overcast
11:45 AM 48.2 °F - 48.2 °F 100% 30.15 in 1.6 mi WSW 4.6 mph - N/A   Overcast
12:00 PM 48.2 °F - 48.2 °F 100% 30.15 in 1.9 mi West 3.5 mph - N/A   Overcast
12:30 PM 48.2 °F - 48.2 °F 100% 30.15 in 1.9 mi Variable 2.3 mph - N/A   Overcast
1:00 PM 48.2 °F - 48.2 °F 100% 30.15 in 1.9 mi Variable 2.3 mph - N/A   Overcast
1:30 PM 48.2 °F - 48.2 °F 100% 30.15 in 1.6 mi South 3.5 mph - N/A   Overcast
2:00 PM 48 °F - 48 °F 100% 30.17 in 2 mi SSW 4.5 mph - -   Mist
2:00 PM 48.2 °F - 48.2 °F 100% 30.12 in 1.6 mi South 4.6 mph - N/A   Overcast
2:04 PM 48.2 °F - 48.2 °F 100% 30.12 in 1.6 mi South 4.6 mph - N/A   Overcast
2:30 PM 48.2 °F - 48.2 °F 100% 30.12 in 1.6 mi SW 4.6 mph - N/A   Overcast
2:47 PM 48.2 °F - 48.2 °F 100% 30.12 in 1.6 mi SSW 4.6 mph - N/A   Overcast
3:00 PM 48.2 °F - 48.2 °F 100% 30.12 in 1.9 mi South 3.5 mph - N/A   Overcast
3:30 PM 48.2 °F - 48.2 °F 100% 30.12 in 1.9 mi SW 5.8 mph - N/A   Overcast
4:00 PM 48.2 °F - 48.2 °F 100% 30.12 in 1.9 mi SSW 4.6 mph - N/A   Overcast
4:30 PM 48.2 °F - 48.2 °F 100% 30.12 in 1.7 mi SW 3.5 mph - N/A   Overcast
5:00 PM 48.2 °F - 48.2 °F 100% 30.12 in 1.6 mi SW 4.6 mph - N/A   Overcast
5:30 PM 48.2 °F - 48.2 °F 100% 30.15 in 1.2 mi WSW 4.6 mph - N/A   Overcast
6:00 PM 48.2 °F - 48.2 °F 100% 30.15 in 0.9 mi West 2.3 mph - N/A   Overcast
6:30 PM 48.2 °F - 46.4 °F 93% 30.15 in 0.7 mi South 2.3 mph - N/A Fog Patches of Fog
6:46 PM 48.2 °F - 46.4 °F 93% 30.15 in 0.5 mi WSW 2.3 mph - N/A   Unknown
7:00 PM 48.2 °F - 46.4 °F 93% 30.15 in 0.3 mi SSW 3.5 mph - N/A   Unknown
7:03 PM 48.2 °F - 46.4 °F 93% 30.15 in 0.3 mi Variable 2.3 mph - N/A Fog Fog
7:30 PM 48.2 °F - 46.4 °F 93% 30.15 in 0.3 mi Variable 1.2 mph - N/A Fog Fog
8:00 PM 47 °F - 47 °F 99% 30.18 in 0 mi SSW 4.5 mph - - Fog Heavy Fog
8:00 PM 46.4 °F - 46.4 °F 100% 30.15 in 0.3 mi Variable 2.3 mph - N/A Fog Fog
8:30 PM 46.4 °F - 46.4 °F 100% 30.15 in 0.3 mi Variable 2.3 mph - N/A Fog Light Drizzle
9:00 PM 46.4 °F 45.2 °F 46.4 °F 100% 30.15 in 0.3 mi South 3.5 mph - N/A Fog Light Drizzle
9:30 PM 46.4 °F 44.3 °F 46.4 °F 100% 30.15 in 0.3 mi SW 4.6 mph - N/A Fog Light Drizzle
10:00 PM 46.4 °F 44.3 °F 46.4 °F 100% 30.15 in 0.4 mi West 4.6 mph - N/A Fog Light Drizzle
10:15 PM 46.4 °F 45.2 °F 46.4 °F 100% 30.15 in 0.5 mi WSW 3.5 mph - N/A Fog Light Drizzle
10:30 PM 46.4 °F - 46.4 °F 100% 30.15 in 0.5 mi Variable 2.3 mph - N/A   Light Drizzle
11:00 PM 46.4 °F - 46.4 °F 100% 30.15 in 0.4 mi Variable 2.3 mph - N/A Fog Light Drizzle
11:30 PM 46.4 °F - 46.4 °F 100% 30.12 in - SSW 2.3 mph - N/A Fog Light Drizzle